Tracking 28531 objects as of 2-Mar-2024
HD Live streaming from Space Station
objects crossing your sky now

OBJECT AH

Track OBJECT AH now!
10-day predictions


NORAD ID: 58287
Int'l Code: 2023-174AH
Perigee: 517.7 km
Apogee: 530.1 km
Inclination: 97.5 °
Period: 95.0 minutes
Semi major axis: 6894 km
RCS: Unknown
Launch date: November 11, 2023
Source: (TBD)
Launch site: AIR FORCE WESTERN TEST RANGE (AFWTR)
Your satellite tracking list
Your tracking list is empty




NASA's NSSDC Master Catalog

Two Line Element Set (TLE):
1 58287U 23174AH  24062.17242834  .00009895  00000-0  51232-3 0  9999
2 58287  97.4634 138.2443 0009004 234.4515 125.5879 15.16378895 17476
Source of the keplerian elements: AFSPC